Location: Kingston
(44.2312°N, 76.4860°W)
Time: 06:09:31
(UTC-04:00)

Envisat - Visible Passes

Search period start: 24 May 2018 00:00
Search period end: 03 June 2018 00:00
Orbit: 764 x 766 km, 98.2° (Epoch: 23 May)

Date Brightness Start Highest point End Pass type
(mag) Time Alt. Az. Time Alt. Az. Time Alt. Az.
24 May 5.2 21:23:46 10° SSW 21:27:52 24° W 21:31:59 10° NW visible
26 May 5.7 21:51:05 10° WSW 21:53:43 14° W 21:56:22 10° WNW visible
27 May 4.9 21:12:11 10° SSW 21:16:37 30° W 21:21:05 10° NW visible
29 May 5.5 21:39:03 10° SW 21:42:26 18° W 21:45:50 10° NW visible
01 Jun 5.3 21:27:15 10° SW 21:31:10 22° W 21:35:06 10° NW visible
